LEMUR-2-TOMATOKECHUP (60471 NORAD) Tracking and Keplerian Element Data

This shows tracking and keplerian element data for the satellite.

Feedback or suggestion? Click here.




ElementValue
Catalog60471
NameLEMUR-2-TOMATOKECHUP
Epoch Orbit864
Epoch Day286.78796115
Epoch Year2024
RAAN1.4246
Inclination97.4398
Eccentricity0.0001752
Argument of Perigee214.184
Mean Anonmoly145.9282
Mean Motion15.18987675
Decay Rate0.00017904
L11 60471U 24149D 24286.78796115 .00017904 00000+0 85774-3 0 9998
L22 60471 97.4398 1.4246 0001752 214.1840 145.9282 15.18987675 8648



Live tracking and technical data element details for LEMUR-2-TOMATOKECHUP (NORAD 60471). LEMUR-2-TOMATOKECHUP can be tracked NOW for your location showing map with azimuth and elevation plus other details from your city location.







IsCatalogInMostPopularTable: catalog: 60471, numindb: 6
Update: records affected: 1



GetName: 60471 LEMUR-2-TOMATOKECHUP

Hit Count: updated at: Wed, 04 Dec 2024 18:31:06 GMT